Location: Brunsen
(51.8651°N, 9.8610°E)
Time: 11:38:40
(UTC+00:00)

Cosmos 1733 Rocket - Pass Details

Date: 23 May 2024
Orbit: 600 x 623 km, 82.5° (Epoch: 23 June)

Event Time Altitude Azimuth Distance (km) Brightness Sun altitude
Rises 00:23:51 0° 344° (NNW) 2,868 7.5 -16.1°
Reaches altitude 10° 00:26:08 10° 338° (NNW) 1,961 6.4 -16.0°
Maximum altitude 00:30:15 44° 266° (W) 840 3.5 -15.8°
Enters shadow 00:32:05 28° 213° (SSW) 1,154 3.9 -15.7°
